#timestamp,LO_Frequency,Hit,StdDev 
1455465615.1,286046993.5,N
1455465635.9,286046993.3,N
1455465655.7,286046993.3,N
1455465675.5,286046995.6,N
1455465695.4,286046997.8,N
1455465715.2,286046996.1,N
1455465735.0,286046994.2,N
1455465735.9,286046994.2,N
1455465755.8,286046995.3,N
1455465775.6,286046996.9,N
1455465795.4,286047004.3,N
1455465815.2,286047003.7,N
1455465835.1,286047008.5,N
1455465836.0,286047008.5,N
1455465855.8,286047010.7,N
1455465875.6,286047006.8,N
1455465895.5,286047003.8,N
1455465915.3,286047003.4,N
1455465935.1,286047007.0,N
1455465955.9,286047010.2,N
1455465975.7,286047012.2,N
1455465995.5,286047009.4,N
1455466015.4,286047013.1,N
1455466035.2,286047015.4,N
1455466055.0,286047013.1,N
1455466055.9,286047013.1,N
1455466075.8,286047013.9,N
1455466095.6,286047012.7,N
1455466115.4,286047016.5,N
1455466135.3,286047013.6,N
1455466155.1,286047008.5,N
1455466156.0,286047008.5,N
1455466175.8,286047008.4,N
1455466195.6,286047007.8,N
1455466215.5,286047009.5,N
1455466235.3,286047009.3,N
1455466255.1,286047008.8,N
1455466275.9,286047010.1,N
1455466295.7,286047006.7,N
1455466315.5,286047009.2,N
1455466335.4,286047006.9,N
1455466355.2,286047006.9,N
1455466375.0,286047004.6,N
1455466375.9,286047004.6,N
1455466395.8,286047005.0,N
1455466415.6,286047003.9,N
1455466435.4,286047000.4,N
1455466455.3,286046999.7,N
1455466475.1,286046999.1,N
1455466476.0,286046999.1,N
1455466495.8,286046998.9,N
1455466515.7,286047000.1,N
1455466535.5,286047002.8,N
1455466555.3,286047000.7,N
1455466575.1,286046999.3,N
1455466595.9,286047000.0,N
1455466615.7,286047002.5,N
1455466635.5,286047002.6,N
1455466655.4,286047003.8,N
1455466675.2,286047004.9,N
1455466695.0,286047004.4,N
1455466695.9,286047004.4,N
1455466715.8,286046998.4,N
1455466735.6,286046998.8,N
1455466755.4,286047001.3,N
1455466775.3,286047005.9,N
1455466795.1,286047003.3,N
1455466796.0,286047003.3,N
1455466815.8,286047007.1,N
1455466835.7,286047006.6,N
1455466855.5,286047010.6,Y
1455466875.3,286047003.0,P
1455466895.2,286047004.5,P
1455466915.9,286047005.1,P
1455466935.7,286047003.2,Y
1455466955.6,286046997.2,P
1455466975.4,286046995.2,N
1455466995.2,286046997.6,N
1455467015.1,286046991.8,N
1455467016.0,286046991.8,N
1455467035.8,286046994.6,N
1455467055.6,286046996.0,N
1455467075.5,286046995.6,N
1455467095.3,286046999.3,N
1455467115.1,286046994.9,N
1455467135.8,286046993.3,N
1455467155.7,286046994.2,N
1455467175.5,286046993.7,N
1455467195.3,286046997.9,N
1455467215.2,286046996.8,N
1455467235.9,286046998.8,N
1455467255.7,286046999.5,N
1455467275.6,286046998.5,N
1455467295.4,286047001.1,N
1455467315.2,286047001.1,N
1455467335.1,286046998.3,N
1455467336.0,286046998.3,N
1455467355.8,286046994.9,N
1455467375.6,286046996.4,N
1455467395.5,286046999.1,N
1455467415.3,286046995.9,N
1455467435.1,286046994.7,N
1455467455.8,286046992.0,N
1455467475.7,286046995.5,N
1455467495.5,286046996.1,N
1455467515.3,286046992.3,Y
1455467535.2,286046993.5,P
1455467555.0,286046999.6,N
1455467555.9,286046999.6,N
1455467575.7,286046995.4,N
1455467595.6,286046996.6,N
1455467615.4,286046996.8,N
1455467635.2,286046995.5,N
1455467655.1,286046997.9,N
1455467656.0,286046997.9,N
1455467675.8,286046993.4,Y
1455467695.6,286047001.4,P
1455467715.5,286047003.7,N
1455467735.3,286046999.7,N
1455467755.1,286047000.2,N
1455467775.9,286046998.7,N
1455467795.7,286046996.9,N
1455467815.5,286046997.0,N
1455467835.4,286046997.4,N
1455467855.2,286046995.3,N
1455467875.0,286047002.8,N
1455467875.9,286047002.8,N
1455467895.8,286046998.7,N
1455467915.6,286046999.5,N
1455467935.4,286047001.2,N
1455467955.2,286046999.7,N
1455467975.1,286046997.0,N
1455467976.0,286046997.0,N
1455467995.8,286046994.9,N
1455468015.6,286046995.1,N
1455468035.5,286047000.7,N
1455468055.3,286047003.8,N
1455468075.1,286047004.0,N
1455468095.9,286047004.8,N
1455468115.7,286047006.9,N
1455468135.5,286047006.8,N
1455468155.4,286047004.9,N
1455468175.2,286047007.9,N
1455468195.0,286047013.3,Y
1455468195.9,286047013.3,P
1455468215.8,286047011.2,N
1455468235.6,286047019.0,P
1455468255.4,286047017.0,N
1455468275.3,286047014.0,N
1455468295.1,286047013.8,N
1455468296.0,286047013.8,N
1455468315.8,286047012.9,N
1455468335.6,286047009.5,N
1455468355.5,286047010.6,N
1455468375.3,286047009.2,N
1455468395.1,286047008.1,N
1455468415.9,286047010.5,N
1455468435.7,286047013.6,Y
1455468455.5,286047001.1,P
1455468475.4,286047004.2,N
1455468495.2,286047007.2,N
1455468515.0,286047005.4,N
1455468515.9,286047005.4,N
1455468535.8,286047005.9,N
1455468555.6,286047002.5,N
1455468575.4,286046997.2,N
1455468595.3,286046995.5,N
1455468615.1,286046992.1,N
1455468616.0,286046992.1,N
1455468635.8,286046992.1,N
1455468655.7,286046991.3,N
1455468675.5,286046988.7,N
1455468695.3,286046992.7,N
1455468715.2,286046994.1,N
1455468735.9,286046990.4,N
1455468755.7,286046990.6,N
1455468775.5,286046994.3,N
1455468795.4,286046994.2,N
1455468815.2,286046993.6,N
1455468835.0,286046994.4,N
1455468835.9,286046994.4,N
1455468855.8,286046994.8,N
1455468875.6,286046996.4,N
1455468895.4,286046993.6,N
1455468915.3,286046993.7,N
1455468935.1,286046996.7,N
1455468936.0,286046996.7,N
1455468955.8,286046998.6,N
1455468975.7,286046999.9,N
1455468995.5,286047002.1,N
1455469015.3,286047001.7,N
1455469035.2,286046998.2,N
1455469055.9,286046999.3,N
1455469075.7,286046999.2,N
1455469095.5,286046993.4,N
1455469115.4,286046999.3,N
1455469135.2,286046999.0,N
1455469155.0,286047004.3,N
1455469155.9,286047004.3,N
1455469175.8,286047001.4,N
1455469195.6,286047001.6,N
1455465615.6,286047005.9,N
1455465635.4,286047005.4,N
1455465655.3,286047007.1,Y
1455465675.1,286047005.2,P
1455465676.0,286047005.2,P
1455465695.8,286047004.8,P
1455465715.7,286047005.0,Y
1455465735.5,286047001.0,P
1455465755.3,286046998.6,N
1455465775.1,286046996.7,N
1455465795.9,286046996.2,N
1455465815.7,286046994.2,N
1455465835.5,286046990.1,N
1455465855.4,286046991.2,N
1455465875.2,286046991.4,N
1455465895.0,286046991.5,N
1455465895.9,286046991.5,N
1455465915.8,286046987.2,N
1455465935.6,286046987.4,N
1455465955.4,286046986.9,N
1455465975.3,286046987.5,N
1455465995.1,286046987.0,N
1455465996.0,286046987.0,N
1455466015.8,286046985.3,N
1455466035.7,286046986.3,N
1455466055.5,286046985.3,N
1455466075.3,286046985.7,N
1455466095.2,286046984.3,N
1455466115.9,286046986.3,N
1455466135.7,286046986.4,N
1455466155.5,286046988.4,N
1455466175.4,286046985.7,N
1455466195.2,286046990.7,N
1455466215.0,286046991.0,N
1455466215.9,286046991.0,N
1455466235.8,286046989.3,N
1455466255.6,286046987.1,N
1455466275.4,286046988.4,N
1455466295.3,286046986.2,Y
1455466315.1,286046999.1,P
1455466335.8,286046996.1,N
1455466355.7,286046992.0,N
1455466375.5,286046990.8,N
1455466395.3,286046990.5,N
1455466415.2,286046994.8,N
1455466435.9,286046993.2,N
1455466455.7,286046990.5,Y
1455466475.6,286046998.8,P
1455466495.4,286046995.1,N
1455466515.2,286046997.0,N
1455466535.1,286046997.1,N
1455466536.0,286046997.1,N
1455466555.8,286046999.1,N
1455466575.6,286046999.1,N
1455466595.5,286046999.0,N
1455466615.3,286046999.4,N
1455466635.1,286046995.8,N
1455466655.8,286046996.3,N
1455466675.7,286046994.0,Y
1455466695.5,286046997.4,P
1455466715.3,286046994.4,P
1455466735.2,286046993.3,P
1455466755.0,286046993.9,Y
1455466755.9,286046993.9,P
1455466775.8,286046998.6,N
1455466795.6,286046998.6,N
1455466815.4,286046997.4,N
1455466835.2,286046999.4,N
1455466855.1,286047001.1,N
1455466856.0,286047001.1,N
1455466875.8,286047000.7,N
1455466895.6,286046998.7,N
1455466915.5,286046998.8,N
1455466935.3,286046999.9,N
1455466955.1,286047002.0,N
1455466975.9,286047000.0,N
1455466995.7,286046999.9,N
1455467015.5,286047001.5,N
1455467035.4,286047002.8,N
1455467055.2,286047001.0,N
1455467075.0,286046999.9,N
1455467075.9,286046999.9,N
1455467095.8,286047000.4,N
1455467115.6,286047002.8,N
1455467135.4,286047001.0,N
1455467155.2,286047000.8,N
1455467175.1,286046997.0,N
1455467176.0,286046997.0,N
1455467195.8,286047000.3,N
1455467215.6,286047000.4,N
1455467235.5,286047000.4,N
1455467255.3,286046998.7,N
1455467275.1,286046998.7,N
1455467295.9,286046998.7,N
1455467315.7,286046997.5,N
1455467335.5,286046996.8,N
1455467355.4,286046998.0,N
1455467375.2,286046994.9,Y
1455467395.0,286046993.6,P
1455467395.9,286046993.6,N
1455467415.8,286046994.6,N
1455467435.6,286046994.4,N
1455467455.4,286046991.7,Y
1455467475.3,286046997.3,P
1455467495.1,286046997.5,N
1455467515.8,286046999.5,N
1455467535.7,286047000.4,N
1455467555.5,286046999.8,N
1455467575.3,286047002.5,N
1455467595.2,286047002.4,N
1455467615.9,286047002.1,N
1455467635.7,286047002.4,N
1455467655.6,286047000.5,N
1455467675.4,286047000.4,N
1455467695.2,286046998.8,N
1455467715.0,286046999.1,N
1455467715.9,286046999.1,N
1455467735.8,286046997.7,N
1455467755.6,286046996.8,N
1455467775.4,286046997.8,N
1455467795.3,286046995.2,N
1455467815.1,286046996.9,N
1455467835.8,286046996.6,N
1455467855.7,286046996.6,N
1455467875.5,286046999.6,N
1455467895.3,286047002.5,N
1455467915.2,286047000.2,N
1455467935.9,286047001.6,N
1455467955.7,286047002.4,N
1455467975.5,286047004.9,N
1455467995.4,286047008.6,Y
1455468015.2,286047007.0,P
1455468035.0,286047007.5,N
1455468036.0,286047007.5,N
1455468055.8,286047006.6,N
1455468075.6,286047010.7,Y
1455468095.5,286047005.0,P
1455468115.3,286047007.7,P
1455468135.1,286047008.3,P
1455468155.9,286047011.2,Y
1455468175.7,286047005.7,P
1455468195.5,286047008.9,P
1455468215.3,286047006.7,P
1455468235.2,286047005.9,Y
1455468255.0,286046999.4,P
1455468255.9,286046999.4,N
1455468275.8,286047000.4,N
1455468295.6,286046998.6,N
1455468315.4,286047000.6,N
1455468335.2,286047000.0,N
1455468355.1,286047001.5,N
1455468356.0,286047001.5,N
1455468375.8,286047001.6,N
1455468395.6,286047002.8,N
1455468415.5,286047001.2,N
1455468435.3,286047001.6,N
1455468455.1,286047005.0,N
1455468475.9,286047004.0,N
1455468495.7,286047000.8,N
1455468515.5,286047001.1,N
1455468535.4,286046998.1,N
1455468555.2,286046996.9,N
1455468575.0,286046996.9,N
1455468575.9,286046996.9,N
1455468595.8,286046998.9,N
1455468615.6,286046994.9,N
1455468635.4,286046994.9,N
1455468655.2,286046994.5,N
1455468675.1,286046995.3,N
1455468676.0,286046995.3,N
1455468695.8,286046995.4,N
1455468715.6,286046992.4,N
1455468735.5,286046990.1,N
1455468755.3,286046992.8,N
1455468775.1,286046994.8,N
1455468795.9,286046994.2,N
1455468815.7,286046990.6,N
1455468835.5,286046987.7,Y
1455468855.4,286046989.4,P
1455468875.2,286046987.3,P
1455468895.0,286046986.0,P
1455468895.9,286046986.0,Y
1455468915.8,286046997.8,P
1455468935.6,286046996.6,N
1455468955.4,286046996.8,N
1455468975.3,286046998.5,N
1455468995.1,286046996.6,N
1455469015.8,286046997.2,N
1455469035.7,286046999.6,N
1455469055.5,286047000.7,N
1455469075.3,286047004.2,N
1455469095.2,286047003.6,N
1455469115.9,286047004.4,N
1455469135.7,286047007.2,N
1455469155.6,286047006.3,N
1455469175.4,286047005.7,N
1455469195.2,286047001.9,N
